Regional Weather Roundup
Issued by NWS Northern Indiana

Home | Current Version | Previous Version | Graphics & Text | Print | Product List | Glossary On
Versions: 1 2 3 4 5 6 7 8 9 10 11 12 13 14 15 16 17 18 19 20 21 22 23 24 25 26 27 28 29 30 31 32 33 34 35 36 37 38 39 40 41 42 43 44 45 46 47 48 49 50
732
ASUS43 KIWX 102210
RWRIWX

KIWX WEATHER ROUNDUP
NATIONAL WEATHER SERVICE NORTHERN INDIANA
500 PM EST WED FEB 10 2016

NOTE: "FAIR" INDICATES FEW OR NO CLOUDS BELOW 12,000 FEET WITH NO
SIGNIFICANT WEATHER AND/OR OBSTRUCTIONS TO VISIBILITY.

* THESE STATIONS ARE NOT UNDER NWS QUALITY CONTROL. THEY ALSO MAY NOT
  REPORT WEATHER SUCH AS PRECIPITATION OR FOG.

INZ001>027-102300-
NORTHERN INDIANA

CITY           SKY/WX    TMP DP  RH WIND       PRES   REMARKS
GARY*          PTSUNNY   21   1  42 W14       30.04R WCI   8
VALPARAISO     CLOUDY    17   5  59 W9        30.02R WCI   6
MICHIGAN CITY* FLURRIES  18   7  62 W8        30.03R WCI   7
LAPORTE*       MOSUNNY   17   5  59 NW6       30.02R WCI   9
KNOX*          CLOUDY    18   5  57 W10       30.02R WCI   6
SOUTH BEND     LGT SNOW  14   9  80 W16       30.00R WCI  -2
ELKHART*       LGT SNOW N/A N/A N/A W14G22    29.99R
GOSHEN         LGT SNOW  15   9  76 W20       29.98R WCI  -2
MONTICELLO*    CLOUDY    16   2  54 W8        30.04R WCI   5
LOGANSPORT*    CLOUDY    16   3  57 W12       30.05R WCI   3
ROCHESTER*     CLOUDY    21   1  42 W12       30.02R WCI   9
WARSAW*        CLOUDY    18   9  68 W15G22    29.99R WCI   3
ANGOLA*        PTSUNNY   18  10  73 NW14      29.91R WCI   4
FORT WAYNE     LGT SNOW  20   9  62 W20       29.98R WCI   4
HUNTINGTON*    CLOUDY    17   3  55 W13G20    29.99R WCI   3
PERU/GRISSOM   FLURRIES  16   7  67 W15       30.01R WCI   1
MARION*        CLOUDY    15   0  51 W17       30.03R WCI  -1

$$
INZ028>050-102300-
CENTRAL INDIANA

CITY           SKY/WX    TMP DP  RH WIND       PRES   REMARKS
LAFAYETTE      CLOUDY    15   6  67 W12       30.07R WCI   2
KOKOMO*        CLOUDY    16   5  62 W16       30.03R WCI   0
MUNCIE*        CLOUDY    16   5  62 W15       30.02R WCI   1
INDIANAPOLIS   PTSUNNY   17   4  56 W16       30.05R WCI   2

$$
MIZ043>046-050>051-056>058-064>065-071>073-077>080-102300-
SOUTHWEST LOWER MICHIGAN

CITY           SKY/WX    TMP DP  RH WIND       PRES   REMARKS
BATTLE CREEK   CLOUDY    18   7  62 NW14      29.91R WCI   4
BENTON HARBOR  LGT SNOW  18  10  71 NW9G20    30.00R WCI   7
COLDWATER*     FLURRIES  19  11  73 NW12G18   29.91R WCI   6
HILLSDALE*     CLOUDY    18   7  61 W14       29.87R WCI   5
HOLLAND        LGT SNOW  17  11  77 N8        29.98R WCI   7
GRAND RAPIDS   PTSUNNY   19   4  51 NW14G21   29.93R WCI   6
KALAMAZOO      HVY SNOW  17  11  77 NW17      29.94R VSB 1/4 WCI   1
STURGIS*       LGT SNOW  17  13  84 W9        29.93R WCI   6
THREE RIVERS*  PTSUNNY   19   8  64 NW10      29.95R WCI   7

$$
OHZ001>008-015>018-024>025-102300-
NORTHWEST OHIO

CITY           SKY/WX    TMP DP  RH WIND       PRES   REMARKS
DEFIANCE       FLURRIES  21  12  68 W10G20    29.94R WCI  10
FINDLAY        SNOW      20  15  81 W16G30    29.92R VSB 1/2 WCI   6
TOLEDO EXPRESS CLOUDY    21   9  59 NW14G21   29.90R WCI   8
TOLEDO METCALF CLOUDY    23   9  55 W16       29.91R WCI  10
LIMA           PTSUNNY   18  10  71 W18       29.94R WCI   2

$$
AND FOR LAKE MICHIGAN COASTAL AND OPEN LAKE BUOY OBSERVATIONS

STATION/POSITION TEMP    WIND        PRES    VSBY  WAVE
                 AIR SEA DIR/SP/G                  HT/PER
                 (F)     (DEG/KT/KT) (MB)    (MI)  (FT/S)
CALUMET HARBOR    18     270/  9/ 14 1016.1R
MICHIGAN CITY     16     280/ 15/ 18   N/A
BURNS HARBOR      18     300/ 10/ 14 1016.9R
SAINT JOSEPH      19     270/ 17/ 20 1016.6R

$$
&&




USA.gov is the U.S. government's official web portal to all federal, state and local government web resources and services.